sat.trackr.live / text

‹ back to catalog

STARLINK-34701

NORAD 64953 · 2025-158X

PAYLOAD ACTIVE UNKNOWN

§ Identity

Operator
Country
US
Launch date
2025-07-27
Launch site
AFWTR
Launch vehicle
Mass (kg)
RCS (m²)

Purposes: comms

External: N2YO · Heavens-Above · Gunter

§ Orbital elements

Epoch: 2026-09-20T13:20:37.319136Z

Period
93.91 min
Inclination
97.2847°
Eccentricity
0.0001700
Mean motion
15.33447540 rev/d
Perigee alt
464.4 km
Apogee alt
466.7 km
Semi-major
6,843.7 km
B*
6.9287e-4
RAAN
121.8491°
Arg perigee
88.7889°
Mean anomaly
271.3549°
Rev number
6,471

§ Raw data

STARLINK-347011 64953U 25158X   26263.55598749  .00022362  00000+0  69287-3 0  99982 64953  97.2847 121.8491 0001700  88.7889 271.3549 15.33447540 64713

JSON: /api/v1/satellites/64953 · /tle

For live sub-satellite position, see the globe view (requires WebGL).

§ Visibility from observer

Set your observer location to see the next 7 days of passes ≥ 10°. The values pass through the URL so the page stays shareable.

No JS? Fill the form by hand. The geolocation button needs JavaScript.